Погода в Талпаках

Россия / Калининградская область     54°39′03″N   21°20′13″E
темп.,
°C
ветер,
м/с
пор.,
м/с
влажн.,
%
обл.,
%
осадки,
мм/ч
давл.,
гПа
погр.,
м
20 апреля, вт
вт2023:00+8в36745 0.0 1019105
02:00+7юв227977 0.0 101825
05:00+6вюв2282100 0.0 101732
08:00+10в2368100 0.0 1017208
11:00+15всв234913 0.0 10161195
14:00+15св2344100 0.0 10141803
17:00+13с465874 0.0 1013532
20:00+9ссз2276100 0.0 101331
21 апреля, ср
ср2123:00+7сз227496 0.0 101220
02:00+6зсз227566 0.0 101236
05:00+5зсз23795 0.0 101050
08:00+9зсз25645 0.0 1010284
11:00+14зсз34495 0.0 10091200
14:00+15зсз55458 0.0 10092001
17:00+13зсз46475 0.0 10081126
20:00+7зсз247415 0.0 100986
22 апреля, чт
чт2223:00+7зюз2779100 0.0 1008396
02:00+4з4990100 0.8 1008654
05:00+4юз49905 1.9 1008815
08:00+4юз61080100 1.9 10081013
11:00+7зюз7126886 0.2 10081564
14:00+8з7135673 0.9 10091930
17:00+7з614505 0.0 10101904
20:00+3зюз49695 0.0 1011476
23 апреля, пт
пт2323:00+3зюз4107683 0.0 1010739
02:00+3зюз41076100 0.0 1010569
05:00+3з4984100 0.3 1010829
08:00+4зсз598195 1.7 10111089
11:00+5зсз696497 1.6 10121783
14:00+6сз7959100 2.6 10141790
17:00+5сз796750 0.5 10161402
20:00+2з51073100 0.6 1016758
24 апреля, сб
сб2423:00+3з41271100 0.0 1016542
02:00+3зюз41071100 0.0 1015490
05:00+4зсз4960100 0.1 1014655
08:00+5сз5116811 0.6 10141405
11:00+6сз7105177 0.4 10151837
14:00+7сз794657 0.5 10162169
17:00+5сз685891 0.1 10161624
20:00+2зсз497099 0.2 1016730